Tracking 23731 objects as of 27-Sep-2021
HD Live streaming from Space Station
objects crossing your sky now

COSMOS 1030 DEB

Track COSMOS 1030 DEB now!


NORAD ID: 39447
Int'l Code: 1978-083T
Perigee: 3,583.9 km
Apogee: 36,849.6 km
Inclination: 67.0 °
Period: 719.1 minutes
Semi major axis: 26587 km
RCS: Unknown
Launch date: September 6, 1978
Source: Commonwealth of Independent States (former USSR) (CIS)
Launch site: PLESETSK MISSILE AND SPACE COMPLEX (PKMTR)

Note: This is SATELLITE DEBRIS
aabbcc
Your satellite tracking list
Your tracking list is empty




NASA's NSSDC Master Catalog

Two Line Element Set (TLE):
1 39447U 78083T   21263.28399596  .00000037  00000-0  00000-0 0  9998
2 39447  67.0053 350.0044 6255842  17.7301 356.7426  2.00253973 48069
Source of the keplerian elements: AFSPC